www.pogodaiklimat.ru

Погода и климат >> Архив погоды >> Беларусь >> Пинск


АРХИВ ПОГОДЫ в Пинске

Время (UTC), дата Ветер
(напр.,м/с)
 
Видим.   Явления Облачность Т
(С)
Тd
(С)
f
(%)
Тe
(С)
Тes
(С)
Комфортность P
(гПа)
Po
(гПа)
Тmin
(С)
Tmax
(С)
R
(мм)
R24
(мм)
S
(см)
09 14.11 С 3 10 км 9/9 500 м
[Sc]
+3.2 -0.1 79 -1 -1 по сезону 1019.3 1001.6
12 14.11 З 2 10 км 9/9 660 м
[Sc]
+4.4 +1.5 81 +2 +2 по сезону 1019.9 1002.3
15 14.11 СЗ 2 9000 м слабый дождь {морось} 10/0 720 м
[As op]
+3.3 +1.7 89 0 0 по сезону 1022.0 1004.3
18 14.11 З 1 9000 м дымка {дождь, морось} 9/9 600 м
[Sc]
+2.9 +1.2 89 +1 +1 по сезону 1023.3 1005.5 +4.5 0.0
21 14.11 З 2 9000 м дымка 9/9 1080 м
[Sc]
+2.7 +0.1 83 -0 -0 по сезону 1024.0 1006.2
00 15.11 ЮЗ 2 9000 м дымка 9/9 800 м
[Sc]
+1.5 -0.7 85 -2 -2 по сезону 1024.2 1006.3
03 15.11 З 2 9000 м дымка 9/9 600 м
[Sc]
+1.6 -0.9 83 -2 -2 по сезону 1023.9 1006.0
06 15.11 З 2 10 км 9/0
[Ac trans]
+1.3 -1.3 83 -2 -2 по сезону 1023.9 1006.0 +0.9
09 15.11 З 3 10 км 10/10 400 м
[St]
+2.3 -0.1 84 -2 -2 по сезону 1025.3 1007.4
12 15.11 З 3 10 км 10/10 360 м
[St]
+3.8 +1.3 84 0 0 по сезону 1025.3 1007.5
15 15.11 СЗ 2 10 км 9/0
[Ac und]
+3.5 +1.4 86 +1 +1 по сезону 1025.5 1007.7
18 15.11 З 2 9000 м дымка 9/0
[Ac und]
+3.6 +1.7 87 +1 +1 по сезону 1025.7 1007.9 +3.8
21 15.11 З 2 9000 м дымка 9/0
[Ac und]
+3.9 +2.0 87 +1 +1 по сезону 1026.0 1008.2
00 16.11 З 2 9000 м дымка 9/0
[Ac und]
+3.9 +2.3 89 +1 +1 по сезону 1026.3 1008.5
03 16.11 З 2 8000 м дымка 9/0
[Ac und]
+3.8 +2.1 89 +1 +1 по сезону 1026.7 1008.9
06 16.11 З 3 6000 м дымка 10/10 300 м
[St]
+3.6 +2.2 91 -0 -0 по сезону 1027.3 1009.5 +3.6
09 16.11 СЗ 3 9000 м дымка 9/8 600 м
[Sc Ac trans]
+5.2 +3.2 87 +2 +2 по сезону 1028.1 1010.4
12 16.11 З 2 10 км 10/8 1000 м
[Sc Ac trans]
+6.9 +3.8 81 +5 +5 тепло 1027.7 1010.1
15 16.11 СЗ 1 9000 м дымка 10/8 700 м
[Sc Ci fib]
+5.3 +3.4 88 +4 +4 тепло 1027.5 1009.8
18 16.11 ЮЗ 1 3900 м дымка 10/0
[Ci fib]
+2.9 +2.2 95 +1 +1 по сезону 1027.6 1009.7 +7.2
21 16.11 ЮЗ 1 200 м туман ?/? +0.8 +0.4 97 -1 -1 по сезону 1027.4 1009.4
00 17.11 Ю 1 900 м туман ?/? +0.9 +0.6 98 -1 -1 по сезону 1026.7 1008.7
03 17.11 штиль 0 3600 м дымка {туман} 9/0
[Ac und]
+2.2 +1.6 96 +1 +1 по сезону 1025.4 1007.5
06 17.11 Ю 1 8000 м дымка {туман} 9/9 1080 м
[Sc]
+1.5 +0.2 91 -0 -0 по сезону 1024.6 1006.7 0.0
09 17.11 ЮЗ 2 9000 м дымка 9/9 840 м
[Sc]
+3.0 +0.3 82 0 0 по сезону 1023.7 1005.9
12 17.11 ЮЗ 2 10 км 9/9 660 м
[Sc]
+3.0 0.0 81 0 0 по сезону 1022.5 1004.7
15 17.11 Ю 1 10 км 10/8 840 м
[Sc Ac und]
+1.8 -0.1 87 0 0 по сезону 1022.2 1004.4
18 17.11 ЮЗ 1 9000 м дымка 9/0
[Ac und]
+0.9 -1.0 87 -1 -1 по сезону 1022.3 1004.4 +3.6
21 17.11 ЮЗ 1 9000 м дымка 9/0
[Ac und]
+1.6 -0.6 85 -0 -0 по сезону 1022.1 1004.3
00 18.11 З 1 9000 м дымка 9/0
[Ac und]
+2.1 0.0 86 0 0 по сезону 1021.4 1003.6
03 18.11 ЮЗ 1 9000 м дымка 10/10 210 м
[St]
+1.8 +0.1 88 0 0 по сезону 1020.4 1002.6
06 18.11 ЮЗ 1 4600 м слабая морось 10/10 210 м
[St]
+1.9 +1.0 94 0 0 по сезону 1019.9 1002.1 +0.9 0.0
09 18.11 З 1 3100 м в посл. час морось {дождь} 10/10 210 м
[St]
+2.6 +1.9 95 +1 +1 по сезону 1019.1 1001.4
12 18.11 З 1 4600 м в посл. час дождь {морось} 10/10 210 м
[St]
+3.3 +2.4 94 +2 +2 по сезону 1016.9 999.3
15 18.11 З 1 3600 м дымка 10/10 210 м
[St]
+3.2 +2.5 95 +2 +2 по сезону 1015.5 997.9
18 18.11 СЗ 1 1500 м дымка {морось} 10/10 210 м
[St]
+2.3 +1.8 96 0 0 по сезону 1013.9 996.2 +3.4 0.5
21 18.11 В 1 1500 м слабый дождь {морось} 10/10 270 м
[Frnb Ns]
+2.0 +1.7 98 0 0 по сезону 1012.2 994.6
00 19.11 ЮЗ 1 1500 м дымка {дождь, морось} 10/10 360 м
[St]
+2.7 +2.4 98 +1 +1 по сезону 1010.2 992.6
03 19.11 ЮЗ 2 3600 м дымка 9/9 600 м
[Sc]
+2.3 +1.8 96 -1 -1 по сезону 1008.2 990.6
06 19.11 ЮЗ 2 3900 м дымка 10/10 270 м
[St]
+1.9 +1.2 95 -2 -2 по сезону 1007.1 989.5 +1.8 0.4
09 19.11 З 2 8000 м в посл. час дождь 10/10 400 м
[St]
+2.6 +1.4 92 -1 -1 по сезону 1007.2 989.7
12 19.11 З 3 10 км {дождь} 10/6 1020 м
[Sc Ac trans]
+4.3 +0.6 77 +1 +1 по сезону 1006.8 989.4
15 19.11 З 2 10 км 9/9 960 м
[Sc]
+3.8 +0.3 78 +1 +1 по сезону 1007.1 989.7
18 19.11 З 1 10 км 9/9 1020 м
[Sc]
+3.3 -0.3 77 +2 +2 по сезону 1007.5 990.0 +4.5 0.2
21 19.11 ЮЗ 2 10 км 9/0
[Ac und]
+2.8 -0.7 78 -0 -0 по сезону 1007.6 990.1
00 20.11 Ю 2 10 км 9/0
[Ac und]
+2.0 -0.8 82 -1 -1 по сезону 1007.2 989.6
03 20.11 ЮЗ 2 8000 м дымка 9/0
[Ac und]
-0.2 -1.4 92 -4 -4 по сезону 1007.0 989.3
06 20.11 ЮЗ 3 8000 м в посл. час снег {дождь} 10/0 720 м
[As op]
+0.7 -0.6 91 -4 -4 по сезону 1007.2 989.6 -0.2 0.0
09 20.11 ЮЗ 3 4300 м слабая крупа {ливн. осадки, снег} 10/10 210 м
[Cb calv]
+1.0 +0.2 94 -4 -4 по сезону 1007.4 989.8
12 20.11 З 2 6000 м в посл. час дождь {ливн. осадки, снег} 10/0 570 м
[As op]
+1.9 +0.8 92 -2 -1 по сезону 1007.3 989.7
15 20.11 ЮЗ 2 3900 м слабый ливневой снег {дождь} 10/10 210 м
[Cb calv]
+2.0 +0.7 91 -1 -1 по сезону 1007.8 990.2
18 20.11 З 1 3700 м дымка {ливн. осадки, дождь} 10/10 400 м
[St]
+0.4 -0.1 96 -2 -2 по сезону 1008.6 990.9 +2.8 4
21 20.11 СЗ 2 3700 м в посл. час снег 10/10 300 м
[St]
+0.7 0.0 95 -3 -3 по сезону 1009.2 991.5
00 21.11 З 3 8000 м дымка {снег} 10/10 450 м
[St]
+0.4 -0.8 92 -4 -4 по сезону 1009.9 992.2
03 21.11 СЗ 2 8000 м дымка 9/9 960 м
[Sc]
+0.2 -0.9 92 -4 -4 по сезону 1010.2 992.5

 

Местоположение метеостанции Пинск (Брестская область, Беларусь): широта 52.12 долгота 26.06 высота над уровнем моря 142 м.

В архиве по умолчанию представлена погода в Пинске за последнюю неделю. Архивные данные за месяц целиком и за предыдущие месяцы, начиная с января 2011 года, Вы можете получить, выбрав интересующий диапазон дат из раскрывающегося списка и нажав кнопку "Ввод!".

Внимание! Время в таблицах - всемирное. Для получения местного времени необходимо прибавить поправку, которая в Пинске равна 3 ч.

Смотрите также архив погоды в соседних городах и на ближайших метеорологических станциях:

Погода в Полесской (Брестская область, Беларусь) (48 км)
Погода в Любешове (Волынская область, Украина) (74 км)
Погода в Ганцевичах (Брестская область, Беларусь) (75 км)
Погода в Ивацевичах (Брестская область, Беларусь) (80 км)
Погода в Маневичах (Волынская область, Украина) (100 км)
Погода в Сарнах (Ровенская область, Украина) (101 км)
Погода в Барановичах (Брестская область, Беларусь) (113 км)
Погода в Пружанах (Брестская область, Беларусь) (117 км)
Погода в Житковичах (Гомельская область, Беларусь) (124 км)
Погода в Свитязи (Волынская область, Украина) (127 км)

Пояснения к столбцам:

Ветер - указаны скорость ветра в м/с - средняя за 10 мин, порывы в срок и между сроками (в фигурных скобках) и направление, откуда дует ветер: С - северный, СВ - северо-восточный, В - восточный, ЮВ - юго-восточный, Ю - южный, ЮЗ - юго-западный, З - западный, СЗ - северо-западный.
Видимость - горизонтальная дальность видимости в метрах или километрах. При видимости от 1 до 10 км при отсутствии осадков обычно наблюдается дымка, при ухудшении видимости до 1 км и менее - туман. В сухую погоду видимость может ухудшаться дымом, пылью или мглою.
Явления - указаны атмосферные явления, наблюдавшиеся в срок или в последний час перед сроком; фигурными скобками обозначены явления, наблюдавшиеся между сроками (за 1-3 часа до срока); квадратными скобками обозначены град или гололедные отложения с указанием их диаметра в мм.
Облачность - указаны через наклонную черту общая и нижняя облачность в баллах и высота нижней границы облаков в метрах; квадратными скобками обозначены формы облаков: Ci - перистые, Cs - перисто-слоистые, Cc - перисто-кучевые, Ac - высококучевые, As - высокослоистые, Sc - слоисто-кучевые, Ns - слоисто-дождевые, Cu - кучевые, Cb - кучево-дождевые. Подробнее классификацию облаков см. в Атласе облаков (PDF).
T - Температура воздуха - температура, измеренная на высоте 2 м над землей.
Td - Температура точки росы - температура, при понижении до которой содержащийся в воздухе водяной пар достигнет насыщения.
f - Относительная влажность воздуха - влажноcть воздуха, измеренная на высоте 2 м над землей.
Te - Эффективная температура - температура, которую ощущает одетый по сезону человек в тени. Характеристика душности погоды. При расчете учитывается влияние влажности воздуха и скорости ветра на теплоощущения человека.
Tes - Эффективная температура на солнце - температура, которую ощущает человек, с поправкой на солнечный нагрев. Характеристика знойности погоды. Зависит от высоты солнца над горизонтом, облачности и скорости ветра. Ночью, в пасмурную погоду, а также при ветре 12 м/с и более поправка равна нулю.
P - Атмосферное давление - приведенное к уровню моря атмосферное давление.
Po - Атмосферное давление - измеренное на уровне метеостанции атмосферное давление.
Tmin - Минимальная температура - минимум температуры воздуха на высоте 2 м над землей.
Tmax - Максимальная температура - максимум температуры воздуха на высоте 2 м над землей.
R - Количество осадков - Количество выпавших осадков за период времени, мм. При наведении курсора мыши на число - период времени, за который выпало указанное количество осадков.
R24 - Количество осадков - Количество выпавших осадков за 24 часа, мм.
S - Снежный покров - Высота снежного покрова, см. При наведении курсора мыши на число - состояние снежного покрова и степень покрытия местности в баллах.